Location: Unspecified
(0.0000°N, 0.0000°E)
Time: 00:05:51
(UTC+00:00)

Hubble Space Telescope - Pass Details

Date: 24 January 2022
Orbit: 534 x 538 km, 28.5° (Epoch: 27 January)

Event Time Altitude Azimuth Distance (km) Brightness Sun altitude
Rises 19:31:05 0° 262° (W) 2,665 5.9 -18.6°
Reaches altitude 10° 19:33:40 10° 276° (W) 1,774 4.3 -19.2°
Maximum altitude 19:37:00 24° 331° (NNW) 1,129 2.5 -20.0°
Enters shadow 19:38:08 21° 356° (N) 1,220 2.4 -20.3°
